Weather in Rocha

Uruguay     34°28′56″S   54°19′43″W
temp.,
°C
wind,
m/s
gust,
m/s
humid.,
%
clouds,
%
prec.,
mm/h
press.,
hPa
HPBL,
m
9 august, tue
tue900:00+7se0186100 0.0 103018
03:00+7se2289100 0.0 102930
06:00+7sse2392100 0.0 102954
09:00+10se2682100 0.0 1031414
12:00+13sse556169 0.0 10321246
15:00+12sse55625 0.0 10301233
18:00+8sse33885 0.0 103051
21:00+7sse23915 0.0 103158
10 august, wed
wed1000:00+6s22850 0.0 103031
03:00+5ssw11871 0.0 102911
06:00+5wsw11924 0.0 102910
09:00+8sw34840 0.0 1029135
12:00+14ese34571 0.0 10291339
15:00+14e335824 0.0 10271292
18:00+9e228298 0.0 102620
21:00+7ene228893 0.0 102728
11 august, thu
thu1100:00+7nne2292100 0.0 102714
03:00+7nne2296100 0.0 102512
06:00+7n22971 0.0 102511
09:00+10n24890 0.0 1026155
12:00+15n46620 0.0 1026943
15:00+16nnw56550 0.0 10241207
18:00+11n33780 0.0 102335
21:00+8nne35870 0.0 102378
12 august, fri
fri1200:00+8nne33935 0.0 102353
03:00+8nne311965 0.0 1022260
06:00+7nne311965 0.0 1022240
09:00+11nne3108539 0.0 1022302
12:00+16nne5867100 0.0 1020840
15:00+18n5764100 0.0 10171150
18:00+14nne3587100 0.0 101787
21:00+12nne31095100 0.0 1018229
13 august, sat
sat1300:00+11n41295100 0.0 1018280
03:00+10n36971 0.0 1018132
06:00+10n33960 0.0 101856
09:00+13n24865 0.0 1019153
12:00+19nw12680 0.0 1019720
15:00+20e226217 0.0 10171182
18:00+14e35915 0.0 101785
21:00+12ne35930 0.0 101888